This is the latest recevied weather packets stored in our database for station/object WX6HNX-2. If no packets are shown the sender has not sent any weather packets the latest 10 day(s).
| Time | Temp. | Humidity | Pressure | Rain* | Wind** | Luminosity | Snow |
|---|---|---|---|---|---|---|---|
| 1777580300 | 23.89° C | 50% | 1013.4 hPa | 0 mm | - | - | - |
| 1777579820 | 24.44° C | 50% | 1013.5 hPa | 0 mm | - | - | - |
| 1777579341 | 23.89° C | 50% | 1013.5 hPa | 0 mm | - | - | - |
| 1777578860 | 23.89° C | 48% | 1013.5 hPa | 0 mm | - | - | - |
| 1777578620 | 23.89° C | 52% | 1013.6 hPa | 0 mm | - | - | - |
| 1777578381 | 23.89° C | 50% | 1013.6 hPa | 0 mm | - | - | - |
| 1777578141 | 23.89° C | 48% | 1013.6 hPa | 0 mm | - | - | - |
| 1777577900 | 23.89° C | 51% | 1013.7 hPa | 0 mm | - | - | - |
| 1777577661 | 23.89° C | 49% | 1013.8 hPa | 0 mm | - | - | - |
| 1777576271 | 23.89° C | 50% | 1013.9 hPa | 0 mm | - | - | - |
| 1777575788 | 23.89° C | 50% | 1014 hPa | 0 mm | - | - | - |
| 1777575548 | 23.89° C | 50% | 1014 hPa | 0 mm | - | - | - |
| 1777575308 | 23.89° C | 49% | 1014.1 hPa | 0 mm | - | - | - |
| 1777574994 | 23.89° C | 49% | 1014 hPa | 0 mm | - | - | - |
| 1777574273 | 23.33° C | 50% | 1014.1 hPa | 0 mm | - | - | - |
| 1777574033 | 23.33° C | 49% | 1014.2 hPa | 0 mm | - | - | - |
| 1777573793 | 23.33° C | 51% | 1014.2 hPa | 0 mm | - | - | - |
| 1777573554 | 23.33° C | 51% | 1014.2 hPa | 0 mm | - | - | - |
| 1777572833 | 22.78° C | 53% | 1014.2 hPa | 0 mm | - | - | - |
| 1777572354 | 22.78° C | 50% | 1014.2 hPa | 0 mm | - | - | - |
| 1777572113 | 22.78° C | 54% | 1014.2 hPa | 0 mm | - | - | - |
| 1777571873 | 22.22° C | 53% | 1014.1 hPa | 0 mm | - | - | - |
| 1777571634 | 22.22° C | 53% | 1014.2 hPa | 0 mm | - | - | - |
| 1777570914 | 22.78° C | 54% | 1014.3 hPa | 0 mm | - | - | - |
| 1777570673 | 22.22° C | 55% | 1014.3 hPa | 0 mm | - | - | - |
* Rain latest hour (hover to see other rain measurements)
** Current wind speed in m/s (hover to see current wind gust speed)